DW6757 Weather Reports


Display with metric or nautical units.
time (UTC)temp
F
wind
direction
speed
MPH
gust
MPH
rain 1hr
in
rain 24hr
in
rain mn
in
humidity
%
barometer
mb
20260509224505 90 214 5.0 8.0 0.00 0.14 0.14 51 1007.6
20260509224005 90 218 5.0 8.0 0.00 0.14 0.14 52 1007.4
20260509223504 90 208 5.0 8.0 0.00 0.14 0.14 52 1007.2
20260509223004 90 202 5.0 8.0 0.00 0.14 0.14 54 1007.3
20260509222504 90 210 4.0 8.0 0.00 0.14 0.14 55 1007.3
20260509222004 90 209 4.0 8.0 0.00 0.14 0.14 53 1007.3
20260509221504 90 211 3.0 8.0 0.00 0.14 0.14 56 1007.5
20260509221004 90 194 3.0 8.0 0.00 0.14 0.14 53 1007.5
20260509220504 89 174 4.0 8.0 0.00 0.14 0.14 54 1007.5
20260509220005 89 182 4.0 10.0 0.00 0.14 0.14 55 1007.7
20260509215525 89 182 4.0 10.0 0.00 0.14 0.14 54 1007.7
20260509215004 89 183 4.0 9.0 0.00 0.14 0.14 57 1007.7
20260509214504 90 189 4.0 9.0 0.00 0.14 0.14 55 1007.8
20260509214004 90 167 3.0 7.0 0.00 0.14 0.14 56 1007.8
20260509213505 89 151 3.0 7.0 0.00 0.14 0.14 57 1007.9
20260509213005 90 184 4.0 8.0 0.00 0.14 0.14 55 1007.9
20260509212504 90 210 4.0 8.0 0.00 0.14 0.14 56 1008.0
20260509212004 90 221 4.0 8.0 0.00 0.14 0.14 56 1008.0
20260509211526 90 207 4.0 8.0 0.00 0.14 0.14 56 1008.0
20260509211005 89 194 5.0 9.0 0.00 0.14 0.14 56 1008.1
20260509210525 90 205 4.0 9.0 0.00 0.14 0.14 55 1008.1
20260509210025 90 214 3.0 10.0 0.00 0.14 0.14 55 1008.2
20260509205504 89 229 4.0 10.0 0.00 0.14 0.14 55 1008.2
20260509205005 89 233 5.0 11.0 0.00 0.14 0.14 56 1008.4
20260509204504 89 219 5.0 11.0 0.00 0.14 0.14 57 1008.5
20260509204025 89 210 5.0 10.0 0.00 0.14 0.14 58 1008.6
20260509203504 89 207 5.0 10.0 0.00 0.14 0.14 56 1008.6
20260509203004 89 212 5.0 11.0 0.00 0.14 0.14 56 1008.5
20260509202525 89 211 6.0 16.0 0.00 0.14 0.14 57 1008.6
20260509202025 88 224 5.0 16.0 0.00 0.14 0.14 56 1008.6
20260509201504 88 216 6.0 12.0 0.00 0.14 0.14 56 1008.7
20260509201004 88 201 6.0 12.0 0.00 0.14 0.14 58 1008.7
20260509200504 88 217 5.0 13.0 0.00 0.14 0.14 57 1008.7
20260509200005 89 236 4.0 13.0 0.00 0.14 0.14 57 1008.9
20260509195504 89 233 4.0 9.0 0.00 0.14 0.14 60 1008.9
20260509195004 88 216 5.0 10.0 0.00 0.14 0.14 60 1009.1
20260509194504 88 198 5.0 10.0 0.00 0.14 0.14 62 1009.2
20260509194005 87 193 4.0 9.0 0.00 0.14 0.14 60 1009.3
20260509193525 88 207 2.0 9.0 0.00 0.14 0.14 62 1009.4
20260509193004 87 210 2.0 5.0 0.00 0.14 0.14 63 1009.6
20260509192504 88 258 2.0 6.0 0.00 0.14 0.14 60 1009.6
20260509192004 87 244 3.0 6.0 0.00 0.14 0.14 64 1009.7
20260509191525 87 206 3.0 6.0 0.00 0.14 0.14 65 1009.8
20260509191004 86 206 3.0 9.0 0.00 0.14 0.14 64 1009.9
20260509190504 86 210 3.0 9.0 0.00 0.14 0.14 66 1009.9
20260509190006 86 196 2.0 5.0 0.00 0.14 0.14 66 1009.9
20260509185505 85 169 2.0 5.0 0.00 0.14 0.14 69 1009.8
20260509185005 85 183 2.0 5.0 0.00 0.14 0.14 68 1009.9
20260509184504 85 227 3.0 5.0 0.00 0.14 0.14 67 1009.9
20260509184004 86 260 2.0 5.0 0.00 0.14 0.14 67 1010.0
20260509183525 86 314 2.0 5.0 0.00 0.14 0.14 69 1010.1
20260509183004 86 352 2.0 5.0 0.00 0.14 0.14 67 1010.0
20260509182505 86 291 1.0 4.0 0.00 0.14 0.14 69 1010.1
20260509182026 86 247 1.0 4.0 0.00 0.14 0.14 67 1010.2
20260509181504 85 274 2.0 9.0 0.00 0.14 0.14 72 1010.3
20260509181005 84 266 2.0 9.0 0.00 0.14 0.14 69 1010.4
20260509180504 84 187 2.0 7.0 0.00 0.14 0.14 70 1010.4
20260509180026 84 218 3.0 8.0 0.00 0.14 0.14 69 1010.4
20260509175525 84 233 3.0 8.0 0.00 0.14 0.14 71 1010.5
20260509175004 84 212 3.0 8.0 0.00 0.14 0.14 72 1010.5
20260509174504 83 223 3.0 8.0 0.00 0.14 0.14 69 1010.6
20260509174004 83 247 3.0 12.0 0.00 0.14 0.14 69 1010.7
20260509173505 83 229 5.0 12.0 0.00 0.14 0.14 71 1010.8
20260509173004 83 213 5.0 11.0 0.00 0.14 0.14 73 1010.7
20260509172525 82 212 4.0 9.0 0.00 0.14 0.14 72 1010.7
20260509172004 82 241 3.0 9.0 0.00 0.14 0.14 73 1010.8
20260509171504 82 231 4.0 9.0 0.00 0.14 0.14 73 1010.9
20260509171004 82 219 5.0 10.0 0.00 0.14 0.14 75 1010.9
20260509170526 82 211 5.0 10.0 0.00 0.14 0.14 74 1011.1
20260509170004 81 205 5.0 11.0 0.00 0.14 0.14 75 1011.0
20260509165526 82 219 5.0 12.0 0.00 0.14 0.14 75 1011.0
20260509165004 82 238 4.0 12.0 0.00 0.14 0.14 74 1011.0
20260509164505 81 250 3.0 9.0 0.00 0.14 0.14 74 1011.1
20260509164004 81 258 3.0 9.0 0.00 0.14 0.14 76 1011.1
20260509163504 81 251 4.0 9.0 0.00 0.14 0.14 75 1011.0
20260509163004 80 260 4.0 8.0 0.00 0.14 0.14 77 1011.1
20260509162504 80 261 3.0 7.0 0.00 0.14 0.14 78 1011.0
20260509162025 80 233 3.0 10.0 0.00 0.14 0.14 79 1011.0
20260509161504 79 235 4.0 10.0 0.00 0.14 0.14 82 1010.9
20260509161004 79 250 4.0 8.0 0.00 0.14 0.14 82 1010.9
20260509160504 78 246 4.0 10.0 0.00 0.14 0.14 85 1010.9
20260509160005 78 258 4.0 10.0 0.00 0.14 0.14 89 1010.7
20260509155505 77 269 5.0 13.0 0.00 0.14 0.14 91 1010.7
20260509155004 76 267 6.0 13.0 0.01 0.14 0.14 93 1010.7
20260509154504 75 266 5.0 11.0 0.01 0.14 0.14 94 1010.7
20260509154025 75 264 4.0 8.0 0.01 0.14 0.14 96 1010.9
20260509153504 75 265 3.0 7.0 0.01 0.14 0.14 96 1010.9
20260509153004 74 267 2.0 6.0 0.02 0.14 0.14 96 1011.0
20260509152504 74 279 2.0 7.0 0.02 0.14 0.14 96 1011.2
20260509152004 74 306 1.0 7.0 0.02 0.14 0.14 97 1011.2
20260509151504 74 357 1.0 4.0 0.03 0.14 0.14 96 1011.2
20260509151005 74 5 1.0 4.0 0.03 0.14 0.14 96 1011.4
20260509150504 74 308 1.0 3.0 0.03 0.14 0.14 97 1011.3
20260509150004 74 334 1.0 3.0 0.03 0.14 0.14 97 1011.1
20260509145504 74 320 1.0 3.0 0.03 0.14 0.14 97 1011.0
20260509145025 73 283 1.0 3.0 0.02 0.13 0.13 96 1011.2
20260509144504 73 255 2.0 4.0 0.02 0.13 0.13 96 1011.4
20260509144004 73 235 2.0 5.0 0.02 0.13 0.13 96 1011.3
20260509143525 73 208 3.0 6.0 0.02 0.13 0.13 96 1011.3
20260509143004 73 189 3.0 6.0 0.01 0.12 0.12 96 1011.5
20260509142504 73 172 2.0 5.0 0.01 0.12 0.12 96 1011.6
20260509142004 73 159 2.0 5.0 0.01 0.12 0.12 96 1011.6
20260509141504 73 156 3.0 5.0 0.00 0.11 0.11 96 1011.6
20260509141005 73 143 2.0 5.0 0.00 0.11 0.11 96 1011.4
20260509140504 73 130 2.0 4.0 0.00 0.11 0.11 96 1011.5
20260509140006 73 98 2.0 7.0 0.00 0.11 0.11 96 1011.3
20260509135504 74 83 2.0 7.0 0.00 0.11 0.11 96 1011.3
20260509135005 74 84 2.0 5.0 0.00 0.11 0.11 96 1011.2
20260509134504 74 86 2.0 4.0 0.00 0.11 0.11 96 1010.9
20260509134004 73 95 1.0 4.0 0.01 0.11 0.11 96 1010.5
20260509133504 73 146 0.0 3.0 0.01 0.11 0.11 96 1010.3
20260509133004 73 155 1.0 4.0 0.01 0.11 0.11 96 1010.1
20260509132504 73 160 1.0 4.0 0.01 0.11 0.11 96 1010.0
20260509132004 73 171 1.0 2.0 0.01 0.11 0.11 96 1010.2
20260509131504 73 177 1.0 3.0 0.02 0.11 0.11 96 1010.4
20260509131004 73 161 2.0 5.0 0.06 0.11 0.11 96 1010.4
20260509130504 73 141 1.0 5.0 0.11 0.11 0.11 96 1010.8
20260509130004 73 88 0.0 1.0 0.11 0.11 0.11 96 1010.7
20260509125526 73 88 0.0 2.0 0.11 0.11 0.11 96 1010.9
20260509125004 73 88 1.0 3.0 0.11 0.11 0.11 96 1011.0
20260509124505 73 87 2.0 6.0 0.11 0.11 0.11 96 1011.1
20260509124025 73 80 2.0 6.0 0.10 0.10 0.10 96 1011.2
20260509123504 73 69 2.0 4.0 0.10 0.10 0.10 96 1011.2
20260509123004 73 59 2.0 4.0 0.10 0.10 0.10 96 1011.3
20260509122525 73 34 2.0 5.0 0.10 0.10 0.10 96 1011.3
20260509122004 73 32 2.0 6.0 0.10 0.10 0.10 96 1011.3
20260509121504 73 33 3.0 6.0 0.09 0.09 0.09 96 1011.4
20260509121025 73 23 2.0 5.0 0.05 0.05 0.05 96 1011.4
20260509120504 73 17 2.0 5.0 0.00 0.00 0.00 96 1011.5
20260509120004 73 20 2.0 5.0 0.00 0.00 0.00 96 1011.4
20260509115504 73 22 2.0 5.0 0.00 0.00 0.00 96 1011.4
20260509115004 73 16 2.0 4.0 0.00 0.00 0.00 96 1011.3
20260509114504 73 20 1.0 4.0 0.00 0.00 0.00 96 1011.2
20260509114004 73 50 1.0 2.0 0.00 0.00 0.00 96 1011.0
20260509113525 73 61 1.0 2.0 0.00 0.00 0.00 96 1010.8
20260509113004 73 61 1.0 2.0 0.00 0.00 0.00 96 1010.6
20260509112504 73 61 0.0 2.0 0.00 0.00 0.00 96 1010.6
20260509112025 73 61 1.0 2.0 0.00 0.00 0.00 96 1010.4
20260509111504 72 60 1.0 3.0 0.00 0.00 0.00 96 1010.2
20260509111004 73 52 1.0 3.0 0.00 0.00 0.00 96 1010.1
20260509110525 73 47 1.0 2.0 0.00 0.00 0.00 96 1010.1
20260509110004 73 85 1.0 2.0 0.00 0.00 0.00 96 1010.3
20260509105504 73 85 1.0 2.0 0.00 0.00 0.00 96 1010.3
20260509105004 73 85 1.0 2.0 0.00 0.00 0.00 96 1010.3
20260509104504 73 85 0.0 2.0 0.00 0.00 0.00 96 1010.3
20260509104025 73 85 1.0 4.0 0.00 0.00 0.00 96 1010.3
20260509103526 73 81 2.0 4.0 0.00 0.00 0.00 96 1010.3
20260509103025 73 76 1.0 4.0 0.00 0.00 0.00 95 1010.3
20260509102525 73 81 2.0 4.0 0.00 0.00 0.00 95 1010.3
20260509102004 73 73 2.0 4.0 0.00 0.00 0.00 95 1010.5
20260509101525 73 68 2.0 4.0 0.00 0.00 0.00 95 1010.6
20260509101004 73 59 2.0 4.0 0.00 0.00 0.00 95 1010.7
20260509100505 73 46 1.0 4.0 0.00 0.00 0.00 95 1010.6
20260509100004 73 41 2.0 5.0 0.00 0.00 0.00 95 1010.6
20260509095504 73 33 2.0 5.0 0.00 0.00 0.00 95 1010.4
20260509095004 73 34 2.0 5.0 0.00 0.00 0.00 95 1010.5
20260509094504 73 46 2.0 3.0 0.00 0.00 0.00 95 1010.3
20260509094005 73 45 1.0 3.0 0.00 0.00 0.00 95 1010.3
20260509093504 73 28 1.0 3.0 0.00 0.00 0.00 95 1010.1
20260509093004 73 19 1.0 3.0 0.00 0.00 0.00 95 1010.0
20260509092504 73 9 2.0 3.0 0.00 0.00 0.00 95 1009.8
20260509092004 73 18 1.0 3.0 0.00 0.00 0.00 95 1009.6
20260509091525 73 84 0.0 2.0 0.00 0.00 0.00 95 1009.6
20260509091004 73 96 1.0 2.0 0.00 0.00 0.00 95 1009.6
20260509090525 73 99 1.0 3.0 0.00 0.00 0.00 95 1009.4
20260509090004 73 102 1.0 3.0 0.00 0.00 0.00 95 1009.3
20260509085504 72 102 1.0 4.0 0.00 0.00 0.00 95 1009.2
20260509085004 73 96 1.0 4.0 0.00 0.00 0.00 95 1009.4
20260509084503 72 8 1.0 4.0 0.00 0.00 0.00 95 1009.2
20260509084026 72 115 2.0 7.0 0.00 0.00 0.00 95 1009.4
20260509083503 72 127 3.0 7.0 0.00 0.00 0.00 95 1009.0
20260509083004 73 134 3.0 7.0 0.00 0.00 0.00 95 1008.8
20260509082505 73 152 3.0 7.0 0.00 0.00 0.00 95 1009.3
20260509082004 73 168 2.0 6.0 0.00 0.00 0.00 95 1009.8
20260509081505 73 191 2.0 5.0 0.00 0.00 0.00 95 1010.1
20260509081004 73 197 2.0 5.0 0.00 0.00 0.00 94 1010.3
20260509080503 73 174 3.0 6.0 0.00 0.00 0.00 94 1010.3
20260509080004 73 155 4.0 7.0 0.00 0.00 0.00 94 1010.1
20260509075525 73 149 4.0 7.0 0.00 0.00 0.00 94 1009.7
20260509075004 73 152 3.0 7.0 0.00 0.00 0.00 94 1009.6
20260509074504 73 161 2.0 4.0 0.00 0.00 0.00 94 1009.6
20260509074004 73 179 2.0 4.0 0.00 0.00 0.00 94 1010.0
20260509073504 73 176 2.0 5.0 0.00 0.00 0.00 94 1010.0
20260509073004 73 149 2.0 5.0 0.00 0.00 0.00 94 1009.9
20260509072504 73 148 3.0 7.0 0.00 0.00 0.00 94 1009.8
20260509072004 73 157 3.0 7.0 0.00 0.00 0.00 94 1009.7
20260509071504 73 158 3.0 7.0 0.00 0.00 0.00 93 1009.9
20260509071004 73 164 4.0 9.0 0.00 0.00 0.00 93 1010.2
20260509070503 73 174 4.0 9.0 0.00 0.00 0.00 93 1010.0
20260509070004 73 174 4.0 9.0 0.00 0.00 0.00 93 1010.1
20260509065504 73 165 5.0 9.0 0.00 0.00 0.00 93 1010.2
20260509065003 73 155 5.0 9.0 0.00 0.00 0.00 93 1010.2
20260509064524 73 154 4.0 9.0 0.00 0.00 0.00 92 1010.2
20260509064003 73 163 3.0 7.0 0.00 0.00 0.00 92 1010.3
20260509063504 73 165 3.0 7.0 0.00 0.00 0.00 92 1010.4
20260509063003 73 160 2.0 7.0 0.00 0.00 0.00 92 1010.3
20260509062504 73 156 3.0 5.0 0.00 0.00 0.00 92 1010.3
20260509062003 73 154 3.0 5.0 0.00 0.00 0.00 92 1010.2
20260509061525 73 149 3.0 5.0 0.00 0.00 0.00 92 1010.2
20260509061004 74 149 3.0 6.0 0.00 0.00 0.00 92 1010.2
20260509060525 74 149 3.0 6.0 0.00 0.00 0.00 92 1010.4
20260509060004 74 151 2.0 5.0 0.00 0.00 0.00 91 1010.4
20260509055504 74 161 2.0 5.0 0.00 0.00 0.00 91 1010.4
20260509055003 74 160 2.0 4.0 0.00 0.00 0.00 91 1010.5
20260509054503 74 152 2.0 5.0 0.00 0.00 0.00 91 1010.6
20260509054003 74 143 2.0 5.0 0.00 0.00 0.00 91 1010.8
20260509053503 74 136 1.0 5.0 0.00 0.00 0.00 90 1010.7
20260509053003 74 150 2.0 6.0 0.00 0.00 0.00 90 1010.8
20260509052503 74 153 3.0 6.0 0.00 0.00 0.00 90 1011.0
20260509052004 74 149 3.0 6.0 0.00 0.00 0.00 90 1011.0
20260509051524 74 144 2.0 5.0 0.00 0.00 0.00 90 1010.9
20260509051004 74 129 2.0 4.0 0.00 0.00 0.00 90 1010.7
20260509050524 74 124 1.0 4.0 0.00 0.00 0.00 90 1010.7
20260509050025 74 135 1.0 4.0 0.00 0.00 0.00 90 1010.7
20260509045504 74 137 1.0 3.0 0.00 0.00 0.00 90 1010.7
20260509045004 74 139 1.0 5.0 0.00 0.00 0.00 90 1010.7
20260509044525 74 142 2.0 5.0 0.00 0.00 0.00 90 1010.7
20260509044004 74 138 2.0 5.0 0.00 0.00 0.00 90 1010.6
20260509043525 74 122 1.0 5.0 0.00 0.00 0.00 90 1010.5
20260509043004 74 88 2.0 5.0 0.00 0.00 0.00 90 1010.5
20260509042524 74 88 2.0 5.0 0.00 0.00 0.00 90 1010.5
20260509042004 74 94 2.0 4.0 0.00 0.00 0.00 90 1010.4
20260509041504 74 94 1.0 5.0 0.00 0.00 0.00 90 1010.3
20260509041004 74 89 1.0 5.0 0.00 0.00 0.00 90 1010.3
20260509040524 74 82 2.0 4.0 0.00 0.00 0.00 90 1010.3
20260509040025 74 83 3.0 5.0 0.00 0.00 0.00 90 1010.2
20260509035504 74 81 3.0 5.0 0.00 0.00 0.00 89 1010.1
20260509035003 74 79 3.0 5.0 0.00 0.00 0.00 89 1010.0
20260509034525 74 80 3.0 4.0 0.00 0.00 0.00 89 1010.0
20260509034024 74 81 3.0 5.0 0.00 0.00 0.00 89 1010.1
20260509033524 74 80 3.0 5.0 0.00 0.00 0.00 89 1010.1
20260509033003 74 77 2.0 5.0 0.00 0.00 0.00 89 1010.2
20260509032503 74 81 2.0 4.0 0.00 0.00 0.00 88 1010.2
20260509032003 74 87 2.0 4.0 0.00 0.00 0.00 88 1010.2
20260509031504 74 80 2.0 4.0 0.00 0.00 0.00 88 1010.1
20260509031003 74 81 2.0 4.0 0.00 0.00 0.00 88 1010.1
20260509030504 74 90 2.0 4.0 0.00 0.00 0.00 88 1010.1
20260509030004 74 89 2.0 4.0 0.00 0.00 0.00 88 1010.0
20260509025503 75 84 2.0 4.0 0.00 0.00 0.00 87 1009.9
20260509025004 75 82 3.0 7.0 0.00 0.00 0.00 87 1009.8
20260509024503 75 82 4.0 7.0 0.00 0.00 0.00 87 1009.8
20260509024024 75 85 3.0 7.0 0.00 0.00 0.00 87 1009.7
20260509023524 75 89 2.0 7.0 0.00 0.00 0.00 87 1009.6
20260509023004 75 96 2.0 6.0 0.00 0.00 0.00 87 1009.6
20260509022503 75 94 2.0 7.0 0.00 0.00 0.00 87 1009.6
20260509022003 75 90 2.0 7.0 0.00 0.00 0.00 87 1009.6
20260509021525 75 87 3.0 6.0 0.00 0.00 0.00 87 1009.5
20260509021003 75 82 2.0 6.0 0.00 0.00 0.00 87 1009.4
20260509020524 75 78 2.0 4.0 0.00 0.00 0.00 87 1009.4
20260509020024 75 79 2.0 4.0 0.00 0.00 0.00 87 1009.2
20260509015504 75 81 2.0 4.0 0.00 0.00 0.00 87 1009.2
20260509015003 75 83 2.0 4.0 0.00 0.00 0.00 87 1009.1
20260509014524 75 84 2.0 3.0 0.00 0.00 0.00 87 1009.2
20260509014004 75 81 1.0 4.0 0.00 0.00 0.00 87 1009.1
20260509013503 75 77 2.0 4.0 0.00 0.00 0.00 87 1008.9
20260509013004 75 81 2.0 5.0 0.00 0.00 0.00 86 1008.9
20260509012503 75 85 2.0 5.0 0.00 0.00 0.00 86 1008.8
20260509012004 75 81 3.0 6.0 0.00 0.00 0.00 86 1008.8
20260509011524 75 78 3.0 6.0 0.00 0.00 0.00 85 1008.8
20260509011005 76 76 3.0 6.0 0.00 0.00 0.00 85 1008.7
20260509010505 76 77 3.0 6.0 0.00 0.00 0.00 85 1008.8
20260509010006 76 75 3.0 6.0 0.00 0.00 0.00 85 1008.8
20260509005504 76 69 2.0 6.0 0.00 0.00 0.00 85 1008.7
20260509005026 76 63 2.0 4.0 0.00 0.00 0.00 84 1008.7
20260509004504 76 70 2.0 4.0 0.00 0.00 0.00 84 1008.7
20260509004005 76 78 2.0 4.0 0.00 0.00 0.00 84 1008.8
20260509003505 76 80 2.0 3.0 0.00 0.00 0.00 84 1008.7
20260509003005 76 81 2.0 5.0 0.00 0.00 0.00 84 1008.8
20260509002505 76 84 2.0 5.0 0.00 0.00 0.00 84 1008.8
20260509002026 76 83 2.0 5.0 0.00 0.00 0.00 84 1008.9
20260509001504 76 79 2.0 5.0 0.00 0.00 0.00 84 1008.7
20260509001004 76 75 2.0 5.0 0.00 0.00 0.00 84 1008.7
20260509000505 76 77 3.0 5.0 0.00 0.00 0.00 84 1008.8
20260509000005 76 81 3.0 5.0 0.00 0.00 0.00 84 1008.7
20260508235506 76 76 3.0 7.0 0.00 0.00 0.00 84 1008.7
20260508235026 76 77 4.0 8.0 0.00 0.00 0.00 83 1008.7
20260508234526 76 80 3.0 8.0 0.00 0.00 0.00 83 1008.7
20260508234005 77 80 3.0 7.0 0.00 0.00 0.00 83 1008.7
20260508233504 77 79 3.0 7.0 0.00 0.00 0.00 83 1008.6
20260508233004 77 77 3.0 7.0 0.00 0.00 0.00 83 1008.6
20260508232505 77 75 3.0 7.0 0.00 0.00 0.00 83 1008.6
20260508232005 77 79 3.0 7.0 0.00 0.00 0.00 82 1008.6
20260508231505 77 90 2.0 6.0 0.00 0.00 0.00 83 1008.6
20260508231004 77 83 3.0 6.0 0.00 0.00 0.00 83 1008.7
20260508230504 77 79 3.0 6.0 0.00 0.00 0.00 83 1008.7
20260508230026 77 73 2.0 6.0 0.00 0.00 0.00 82 1008.8
20260508225505 77 48 2.0 4.0 0.00 0.00 0.00 82 1008.9
20260508225005 77 62 3.0 5.0 0.00 0.00 0.00 82 1009.0